Location: Dąbrówka
(52.2799°N, 15.8070°E)
Time: 19:21:49
(UTC+01:00)

ISS - Visible Passes

Search period start: 22 February 2018 00:00
Search period end: 04 March 2018 00:00
Orbit: 402 x 407 km, 51.6° (Epoch: 23 February)

Date Brightness Start Highest point End Pass type
(mag) Time Alt. Az. Time Alt. Az. Time Alt. Az.
01 Mar -1.3 05:25:24 10° S 05:27:41 18° SE 05:29:59 10° E visible
02 Mar -1.0 04:34:27 10° SSE 04:35:37 12° SE 04:36:50 10° ESE visible
03 Mar -2.2 05:16:44 12° SSW 05:19:15 29° SSE 05:22:10 10° E visible
